Location: Unspecified
(0.0000°N, 0.0000°E)
Time: 02:54:52
(UTC+00:00)

N. Korean satellite - Pass Details

Date: 15 August 2019
Orbit: 457 x 507 km, 97.2° (Epoch: 16 August)

Event Time Altitude Azimuth Distance (km) Brightness Sun altitude
Rises 04:43:31 0° 47° (NE) 2,530 11.3 -19.6°
Reaches altitude 10° 04:47:02 10° 85° (E) 1,641 10.5 -18.8°
Maximum altitude 04:48:00 11° 101° (E) 1,582 10.1 -18.6°
Drops below altitude 10° 04:48:58 10° 117° (ESE) 1,636 9.9 -18.3°
Sets 04:52:26 0° 155° (SSE) 2,503 10.3 -17.5°
